owner,sensor,date,latitude,longitude,vertical_datum,mass_concentration_of_oxygen_in_sea_water,qcFlag 
DISL,ioos:station:DISL:BSCA:1,2011-08-01T00:00:00Z,30.3288,-87.8293,1.895,3.75,1111122 
DISL,ioos:station:DISL:BSCA:1,2011-08-01T00:30:00Z,30.3288,-87.8293,1.84,3.46,1111122 
DISL,ioos:station:DISL:BSCA:1,2011-08-01T01:00:00Z,30.3288,-87.8293,1.743,2.46,1111122 
DISL,ioos:station:DISL:BSCA:1,2011-08-01T01:30:00Z,30.3288,-87.8293,1.706,4.03,1111122 
DISL,ioos:station:DISL:BSCA:1,2011-08-01T02:00:00Z,30.3288,-87.8293,1.709,1.14,1111122 
DISL,ioos:station:DISL:BSCA:1,2011-08-01T02:30:00Z,30.3288,-87.8293,1.704,0.32,1111122 
DISL,ioos:station:DISL:BSCA:1,2011-08-01T03:00:00Z,30.3288,-87.8293,1.728,1.51,1111122 
DISL,ioos:station:DISL:BSCA:1,2011-08-01T03:30:00Z,30.3288,-87.8293,1.719,1.26,1111122 
DISL,ioos:station:DISL:BSCA:1,2011-08-01T04:00:00Z,30.3288,-87.8293,1.735,1.42,1111122 
DISL,ioos:station:DISL:BSCA:1,2011-08-01T04:30:00Z,30.3288,-87.8293,1.733,2.51,1111122 
DISL,ioos:station:DISL:BSCA:1,2011-08-01T05:00:00Z,30.3288,-87.8293,1.743,2.97,1111122 
DISL,ioos:station:DISL:BSCA:1,2011-08-01T05:30:00Z,30.3288,-87.8293,1.733,2.89,1111122 
DISL,ioos:station:DISL:BSCA:1,2011-08-01T06:00:00Z,30.3288,-87.8293,1.757,1.9,1111122 
DISL,ioos:station:DISL:BSCA:1,2011-08-01T06:30:00Z,30.3288,-87.8293,1.801,2.58,1111122 
DISL,ioos:station:DISL:BSCA:1,2011-08-01T07:00:00Z,30.3288,-87.8293,1.839,0.94,1111122 
DISL,ioos:station:DISL:BSCA:1,2011-08-01T07:30:00Z,30.3288,-87.8293,1.871,1.96,1111122 
DISL,ioos:station:DISL:BSCA:1,2011-08-01T08:00:00Z,30.3288,-87.8293,1.895,2.14,1111122 
DISL,ioos:station:DISL:BSCA:1,2011-08-01T08:30:00Z,30.3288,-87.8293,1.913,2.69,1111122 
DISL,ioos:station:DISL:BSCA:1,2011-08-01T09:00:00Z,30.3288,-87.8293,1.92,2.48,1111122 
DISL,ioos:station:DISL:BSCA:1,2011-08-01T09:30:00Z,30.3288,-87.8293,1.924,2.61,1111122 
DISL,ioos:station:DISL:BSCA:1,2011-08-01T10:00:00Z,30.3288,-87.8293,1.926,1.74,1111122 
DISL,ioos:station:DISL:BSCA:1,2011-08-01T10:30:00Z,30.3288,-87.8293,1.937,1.28,1111122 
DISL,ioos:station:DISL:BSCA:1,2011-08-01T11:00:00Z,30.3288,-87.8293,1.942,1.89,1111122 
DISL,ioos:station:DISL:BSCA:1,2011-08-01T11:30:00Z,30.3288,-87.8293,1.966,1.03,1111122 
DISL,ioos:station:DISL:BSCA:1,2011-08-01T12:00:00Z,30.3288,-87.8293,1.99,0.46,1111122 
DISL,ioos:station:DISL:BSCA:1,2011-08-01T12:30:00Z,30.3288,-87.8293,2.018,0.34,1111122 
DISL,ioos:station:DISL:BSCA:1,2011-08-01T13:00:00Z,30.3288,-87.8293,2.052,1.06,1111122 
DISL,ioos:station:DISL:BSCA:1,2011-08-01T13:30:00Z,30.3288,-87.8293,2.086,1.11,1111122 
DISL,ioos:station:DISL:BSCA:1,2011-08-01T14:00:00Z,30.3288,-87.8293,2.11,0.58,1111122 
DISL,ioos:station:DISL:BSCA:1,2011-08-01T14:30:00Z,30.3288,-87.8293,2.129,0.74,1111122 
DISL,ioos:station:DISL:BSCA:1,2011-08-01T15:00:00Z,30.3288,-87.8293,2.139,1.56,1111122 
DISL,ioos:station:DISL:BSCA:1,2011-08-01T15:30:00Z,30.3288,-87.8293,2.152,1.86,1111122 
DISL,ioos:station:DISL:BSCA:1,2011-08-01T16:00:00Z,30.3288,-87.8293,2.163,0.92,1111122 
DISL,ioos:station:DISL:BSCA:1,2011-08-01T16:30:00Z,30.3288,-87.8293,2.158,1.68,1111122 
DISL,ioos:station:DISL:BSCA:1,2011-08-01T17:00:00Z,30.3288,-87.8293,2.166,2.36,1111122 
DISL,ioos:station:DISL:BSCA:1,2011-08-01T17:30:00Z,30.3288,-87.8293,2.163,2.25,1111122 
DISL,ioos:station:DISL:BSCA:1,2011-08-01T18:00:00Z,30.3288,-87.8293,2.17,1.71,1111122 
DISL,ioos:station:DISL:BSCA:1,2011-08-01T18:30:00Z,30.3288,-87.8293,2.175,0.33,1111122 
DISL,ioos:station:DISL:BSCA:1,2011-08-01T19:00:00Z,30.3288,-87.8293,2.173,0.47,1111122 
DISL,ioos:station:DISL:BSCA:1,2011-08-01T19:30:00Z,30.3288,-87.8293,2.152,1.0,1111122 
DISL,ioos:station:DISL:BSCA:1,2011-08-01T20:00:00Z,30.3288,-87.8293,2.157,1.42,1111122 
DISL,ioos:station:DISL:BSCA:1,2011-08-01T20:30:00Z,30.3288,-87.8293,2.132,2.75,1111122 
DISL,ioos:station:DISL:BSCA:1,2011-08-01T21:00:00Z,30.3288,-87.8293,2.115,2.52,1111122 
DISL,ioos:station:DISL:BSCA:1,2011-08-01T21:30:00Z,30.3288,-87.8293,2.068,1.26,1111122 
DISL,ioos:station:DISL:BSCA:1,2011-08-01T22:00:00Z,30.3288,-87.8293,2.035,2.45,1111122 
DISL,ioos:station:DISL:BSCA:1,2011-08-01T22:30:00Z,30.3288,-87.8293,1.989,2.48,1111122 
DISL,ioos:station:DISL:BSCA:1,2011-08-01T23:00:00Z,30.3288,-87.8293,1.951,3.05,1111122 
DISL,ioos:station:DISL:BSCA:1,2011-08-01T23:30:00Z,30.3288,-87.8293,1.914,3.01,1111122 
DISL,ioos:station:DISL:BSCA:1,2011-08-02T00:00:00Z,30.3288,-87.8293,1.9,1.81,1111122 
DISL,ioos:station:DISL:BSCA:1,2011-08-02T00:30:00Z,30.3288,-87.8293,1.889,2.47,1111122 
DISL,ioos:station:DISL:BSCA:1,2011-08-02T01:00:00Z,30.3288,-87.8293,1.877,3.81,1111122 
DISL,ioos:station:DISL:BSCA:1,2011-08-02T01:30:00Z,30.3288,-87.8293,1.861,3.33,1111122 
DISL,ioos:station:DISL:BSCA:1,2011-08-02T02:00:00Z,30.3288,-87.8293,1.852,3.67,1111122 
DISL,ioos:station:DISL:BSCA:1,2011-08-02T02:30:00Z,30.3288,-87.8293,1.824,2.3,1111122 
DISL,ioos:station:DISL:BSCA:1,2011-08-02T03:00:00Z,30.3288,-87.8293,1.799,2.43,1111122 
DISL,ioos:station:DISL:BSCA:1,2011-08-02T03:30:00Z,30.3288,-87.8293,1.796,2.32,1111122 
DISL,ioos:station:DISL:BSCA:1,2011-08-02T04:00:00Z,30.3288,-87.8293,1.79,2.0,1111122 
DISL,ioos:station:DISL:BSCA:1,2011-08-02T04:30:00Z,30.3288,-87.8293,1.754,1.48,1111122 
DISL,ioos:station:DISL:BSCA:1,2011-08-02T05:00:00Z,30.3288,-87.8293,1.751,1.99,1111122 
DISL,ioos:station:DISL:BSCA:1,2011-08-02T05:30:00Z,30.3288,-87.8293,1.763,0.6,1111122 
DISL,ioos:station:DISL:BSCA:1,2011-08-02T06:00:00Z,30.3288,-87.8293,1.789,0.44,1111122 
DISL,ioos:station:DISL:BSCA:1,2011-08-02T06:30:00Z,30.3288,-87.8293,1.814,1.12,1111122 
DISL,ioos:station:DISL:BSCA:1,2011-08-02T07:00:00Z,30.3288,-87.8293,1.851,0.38,1111122 
DISL,ioos:station:DISL:BSCA:1,2011-08-02T07:30:00Z,30.3288,-87.8293,1.878,2.27,1111122 
DISL,ioos:station:DISL:BSCA:1,2011-08-02T08:00:00Z,30.3288,-87.8293,1.9,2.49,1111122 
DISL,ioos:station:DISL:BSCA:1,2011-08-02T08:30:00Z,30.3288,-87.8293,1.907,2.9,1111122 
DISL,ioos:station:DISL:BSCA:1,2011-08-02T09:00:00Z,30.3288,-87.8293,1.921,2.19,1111122 
DISL,ioos:station:DISL:BSCA:1,2011-08-02T09:30:00Z,30.3288,-87.8293,1.927,1.67,1111122 
DISL,ioos:station:DISL:BSCA:1,2011-08-02T10:00:00Z,30.3288,-87.8293,1.94,2.54,1111122 
DISL,ioos:station:DISL:BSCA:1,2011-08-02T10:30:00Z,30.3288,-87.8293,1.944,1.78,1111122 
DISL,ioos:station:DISL:BSCA:1,2011-08-02T11:00:00Z,30.3288,-87.8293,1.948,1.42,1111122 
DISL,ioos:station:DISL:BSCA:1,2011-08-02T11:30:00Z,30.3288,-87.8293,1.95,1.47,1111122 
DISL,ioos:station:DISL:BSCA:1,2011-08-02T12:00:00Z,30.3288,-87.8293,1.948,1.19,1111122 
DISL,ioos:station:DISL:BSCA:1,2011-08-02T12:30:00Z,30.3288,-87.8293,1.932,2.19,1111122 
DISL,ioos:station:DISL:BSCA:1,2011-08-02T13:00:00Z,30.3288,-87.8293,1.932,1.62,1111122 
DISL,ioos:station:DISL:BSCA:1,2011-08-02T13:30:00Z,30.3288,-87.8293,1.93,1.77,1111122 
DISL,ioos:station:DISL:BSCA:1,2011-08-02T14:00:00Z,30.3288,-87.8293,1.951,1.4,1111122 
DISL,ioos:station:DISL:BSCA:1,2011-08-02T14:30:00Z,30.3288,-87.8293,1.964,2.23,1111122 
DISL,ioos:station:DISL:BSCA:1,2011-08-02T15:00:00Z,30.3288,-87.8293,1.977,2.91,1111122 
DISL,ioos:station:DISL:BSCA:1,2011-08-02T15:30:00Z,30.3288,-87.8293,1.999,2.53,1111122 
DISL,ioos:station:DISL:BSCA:1,2011-08-02T16:00:00Z,30.3288,-87.8293,2.018,2.82,1111122 
DISL,ioos:station:DISL:BSCA:1,2011-08-02T16:30:00Z,30.3288,-87.8293,2.038,3.05,1111122 
DISL,ioos:station:DISL:BSCA:1,2011-08-02T17:00:00Z,30.3288,-87.8293,2.051,2.4,1111122 
DISL,ioos:station:DISL:BSCA:1,2011-08-02T17:30:00Z,30.3288,-87.8293,2.06,1.9,1111122 
DISL,ioos:station:DISL:BSCA:1,2011-08-02T18:00:00Z,30.3288,-87.8293,2.068,2.18,1111122 
DISL,ioos:station:DISL:BSCA:1,2011-08-02T18:30:00Z,30.3288,-87.8293,2.063,2.82,1111122 
DISL,ioos:station:DISL:BSCA:1,2011-08-02T19:00:00Z,30.3288,-87.8293,2.067,1.71,1111122 
DISL,ioos:station:DISL:BSCA:1,2011-08-02T19:30:00Z,30.3288,-87.8293,2.07,2.62,1111122 
DISL,ioos:station:DISL:BSCA:1,2011-08-02T20:00:00Z,30.3288,-87.8293,2.077,2.32,1111122 
DISL,ioos:station:DISL:BSCA:1,2011-08-02T20:30:00Z,30.3288,-87.8293,2.084,1.87,1111122 
DISL,ioos:station:DISL:BSCA:1,2011-08-02T21:00:00Z,30.3288,-87.8293,2.065,2.75,1111122 
DISL,ioos:station:DISL:BSCA:1,2011-08-02T21:30:00Z,30.3288,-87.8293,2.047,2.99,1111122 
DISL,ioos:station:DISL:BSCA:1,2011-08-02T22:00:00Z,30.3288,-87.8293,2.025,2.51,1111122 
DISL,ioos:station:DISL:BSCA:1,2011-08-02T22:30:00Z,30.3288,-87.8293,2.015,2.6,1111122 
DISL,ioos:station:DISL:BSCA:1,2011-08-02T23:00:00Z,30.3288,-87.8293,1.991,2.26,1111122 
DISL,ioos:station:DISL:BSCA:1,2011-08-02T23:30:00Z,30.3288,-87.8293,1.955,3.88,1111122 
DISL,ioos:station:DISL:BSCA:1,2011-08-03T00:00:00Z,30.3288,-87.8293,1.94,3.58,1111122 
DISL,ioos:station:DISL:BSCA:1,2011-08-03T00:30:00Z,30.3288,-87.8293,1.903,4.02,1111122 
DISL,ioos:station:DISL:BSCA:1,2011-08-03T01:00:00Z,30.3288,-87.8293,1.913,3.47,1111122 
DISL,ioos:station:DISL:BSCA:1,2011-08-03T01:30:00Z,30.3288,-87.8293,1.899,3.36,1111122 
DISL,ioos:station:DISL:BSCA:1,2011-08-03T02:00:00Z,30.3288,-87.8293,1.896,3.74,1111122 
DISL,ioos:station:DISL:BSCA:1,2011-08-03T02:30:00Z,30.3288,-87.8293,1.865,3.51,1111122 
DISL,ioos:station:DISL:BSCA:1,2011-08-03T03:00:00Z,30.3288,-87.8293,1.869,2.23,1111122 
DISL,ioos:station:DISL:BSCA:1,2011-08-03T03:30:00Z,30.3288,-87.8293,1.883,1.89,1111122 
DISL,ioos:station:DISL:BSCA:1,2011-08-03T04:00:00Z,30.3288,-87.8293,1.892,1.69,1111122 
DISL,ioos:station:DISL:BSCA:1,2011-08-03T04:30:00Z,30.3288,-87.8293,1.922,1.89,1111122 
DISL,ioos:station:DISL:BSCA:1,2011-08-03T05:00:00Z,30.3288,-87.8293,1.924,3.22,1111122 
DISL,ioos:station:DISL:BSCA:1,2011-08-03T05:30:00Z,30.3288,-87.8293,1.92,3.4,1111122 
DISL,ioos:station:DISL:BSCA:1,2011-08-03T06:00:00Z,30.3288,-87.8293,1.926,3.19,1111122 
DISL,ioos:station:DISL:BSCA:1,2011-08-03T06:30:00Z,30.3288,-87.8293,1.944,2.59,1111122 
DISL,ioos:station:DISL:BSCA:1,2011-08-03T07:00:00Z,30.3288,-87.8293,1.932,2.6,1111122 
DISL,ioos:station:DISL:BSCA:1,2011-08-03T07:30:00Z,30.3288,-87.8293,1.957,2.44,1111122 
DISL,ioos:station:DISL:BSCA:1,2011-08-03T08:00:00Z,30.3288,-87.8293,1.962,3.63,1111122 
DISL,ioos:station:DISL:BSCA:1,2011-08-03T08:30:00Z,30.3288,-87.8293,1.968,3.68,1111122 
DISL,ioos:station:DISL:BSCA:1,2011-08-03T09:00:00Z,30.3288,-87.8293,1.977,2.52,1111122 
DISL,ioos:station:DISL:BSCA:1,2011-08-03T09:30:00Z,30.3288,-87.8293,1.983,2.9,1111122 
DISL,ioos:station:DISL:BSCA:1,2011-08-03T10:00:00Z,30.3288,-87.8293,1.983,2.47,1111122 
DISL,ioos:station:DISL:BSCA:1,2011-08-03T10:30:00Z,30.3288,-87.8293,1.984,3.38,1111122 
DISL,ioos:station:DISL:BSCA:1,2011-08-03T11:00:00Z,30.3288,-87.8293,1.969,3.3,1111122 
DISL,ioos:station:DISL:BSCA:1,2011-08-03T11:30:00Z,30.3288,-87.8293,1.939,3.0,1111122 
DISL,ioos:station:DISL:BSCA:1,2011-08-03T12:00:00Z,30.3288,-87.8293,1.92,3.35,1111122 
DISL,ioos:station:DISL:BSCA:1,2011-08-03T12:30:00Z,30.3288,-87.8293,1.899,2.46,1111122 
DISL,ioos:station:DISL:BSCA:1,2011-08-03T13:00:00Z,30.3288,-87.8293,1.888,2.38,1111122 
DISL,ioos:station:DISL:BSCA:1,2011-08-03T13:30:00Z,30.3288,-87.8293,1.887,2.63,1111122 
DISL,ioos:station:DISL:BSCA:1,2011-08-03T14:00:00Z,30.3288,-87.8293,1.885,0.39,1111122 
DISL,ioos:station:DISL:BSCA:1,2011-08-03T14:30:00Z,30.3288,-87.8293,1.896,2.05,1111122 
DISL,ioos:station:DISL:BSCA:1,2011-08-03T15:00:00Z,30.3288,-87.8293,1.895,1.65,1111122 
DISL,ioos:station:DISL:BSCA:1,2011-08-03T15:30:00Z,30.3288,-87.8293,1.904,1.7,1111122 
DISL,ioos:station:DISL:BSCA:1,2011-08-03T16:00:00Z,30.3288,-87.8293,1.909,1.22,1111122 
DISL,ioos:station:DISL:BSCA:1,2011-08-03T16:30:00Z,30.3288,-87.8293,1.924,0.47,1111122 
DISL,ioos:station:DISL:BSCA:1,2011-08-03T17:00:00Z,30.3288,-87.8293,1.932,0.37,1111122 
DISL,ioos:station:DISL:BSCA:1,2011-08-03T17:30:00Z,30.3288,-87.8293,1.933,0.31,1111122 
DISL,ioos:station:DISL:BSCA:1,2011-08-03T18:00:00Z,30.3288,-87.8293,1.942,0.24,1111122 
DISL,ioos:station:DISL:BSCA:1,2011-08-03T18:30:00Z,30.3288,-87.8293,1.954,0.46,1111122 
DISL,ioos:station:DISL:BSCA:1,2011-08-03T19:00:00Z,30.3288,-87.8293,1.96,0.4,1111122 
DISL,ioos:station:DISL:BSCA:1,2011-08-03T19:30:00Z,30.3288,-87.8293,1.974,0.25,1111122 
DISL,ioos:station:DISL:BSCA:1,2011-08-03T20:00:00Z,30.3288,-87.8293,1.983,0.58,1111122 
DISL,ioos:station:DISL:BSCA:1,2011-08-03T20:30:00Z,30.3288,-87.8293,2.0,1.52,1111122 
DISL,ioos:station:DISL:BSCA:1,2011-08-03T21:00:00Z,30.3288,-87.8293,2.007,1.81,1111122 
DISL,ioos:station:DISL:BSCA:1,2011-08-03T21:30:00Z,30.3288,-87.8293,2.014,2.14,1111122 
DISL,ioos:station:DISL:BSCA:1,2011-08-03T22:00:00Z,30.3288,-87.8293,2.01,1.71,1111122 
DISL,ioos:station:DISL:BSCA:1,2011-08-03T22:30:00Z,30.3288,-87.8293,2.015,1.66,1111122 
DISL,ioos:station:DISL:BSCA:1,2011-08-03T23:00:00Z,30.3288,-87.8293,1.994,2.14,1111122 
DISL,ioos:station:DISL:BSCA:1,2011-08-03T23:30:00Z,30.3288,-87.8293,1.996,2.91,1111122 
DISL,ioos:station:DISL:BSCA:1,2011-08-04T00:00:00Z,30.3288,-87.8293,1.976,2.68,1111122 
DISL,ioos:station:DISL:BSCA:1,2011-08-04T00:30:00Z,30.3288,-87.8293,1.967,3.04,1111122 
DISL,ioos:station:DISL:BSCA:1,2011-08-04T01:00:00Z,30.3288,-87.8293,1.974,2.44,1111122 
DISL,ioos:station:DISL:BSCA:1,2011-08-04T01:30:00Z,30.3288,-87.8293,1.957,2.91,1111122 
DISL,ioos:station:DISL:BSCA:1,2011-08-04T02:00:00Z,30.3288,-87.8293,1.964,2.94,1111122 
DISL,ioos:station:DISL:BSCA:1,2011-08-04T02:30:00Z,30.3288,-87.8293,1.962,2.97,1111122 
DISL,ioos:station:DISL:BSCA:1,2011-08-04T03:00:00Z,30.3288,-87.8293,1.964,2.39,1111122 
DISL,ioos:station:DISL:BSCA:1,2011-08-04T03:30:00Z,30.3288,-87.8293,1.976,2.56,1111122 
DISL,ioos:station:DISL:BSCA:1,2011-08-04T04:00:00Z,30.3288,-87.8293,1.992,2.1,1111122 
DISL,ioos:station:DISL:BSCA:1,2011-08-04T04:30:00Z,30.3288,-87.8293,2.013,2.37,1111122 
DISL,ioos:station:DISL:BSCA:1,2011-08-04T05:00:00Z,30.3288,-87.8293,2.023,2.03,1111122 
DISL,ioos:station:DISL:BSCA:1,2011-08-04T05:30:00Z,30.3288,-87.8293,2.037,2.35,1111122 
DISL,ioos:station:DISL:BSCA:1,2011-08-04T06:00:00Z,30.3288,-87.8293,2.054,2.51,1111122 
DISL,ioos:station:DISL:BSCA:1,2011-08-04T06:30:00Z,30.3288,-87.8293,2.054,1.45,1111122 
DISL,ioos:station:DISL:BSCA:1,2011-08-04T07:00:00Z,30.3288,-87.8293,2.061,1.57,1111122 
DISL,ioos:station:DISL:BSCA:1,2011-08-04T07:30:00Z,30.3288,-87.8293,2.075,2.17,1111122 
DISL,ioos:station:DISL:BSCA:1,2011-08-04T08:00:00Z,30.3288,-87.8293,2.082,1.52,1111122 
DISL,ioos:station:DISL:BSCA:1,2011-08-04T08:30:00Z,30.3288,-87.8293,2.087,2.48,1111122 
DISL,ioos:station:DISL:BSCA:1,2011-08-04T09:00:00Z,30.3288,-87.8293,2.087,1.93,1111122 
DISL,ioos:station:DISL:BSCA:1,2011-08-04T09:30:00Z,30.3288,-87.8293,2.078,1.86,1111122 
DISL,ioos:station:DISL:BSCA:1,2011-08-04T10:00:00Z,30.3288,-87.8293,2.082,1.58,1111122 
DISL,ioos:station:DISL:BSCA:1,2011-08-04T10:30:00Z,30.3288,-87.8293,2.06,1.37,1111122 
DISL,ioos:station:DISL:BSCA:1,2011-08-04T11:00:00Z,30.3288,-87.8293,2.05,1.12,1111122 
DISL,ioos:station:DISL:BSCA:1,2011-08-04T11:30:00Z,30.3288,-87.8293,2.02,1.29,1111122 
DISL,ioos:station:DISL:BSCA:1,2011-08-04T12:00:00Z,30.3288,-87.8293,1.987,1.12,1111122 
DISL,ioos:station:DISL:BSCA:1,2011-08-04T12:30:00Z,30.3288,-87.8293,1.965,1.23,1111122 
DISL,ioos:station:DISL:BSCA:1,2011-08-04T13:00:00Z,30.3288,-87.8293,1.95,1.25,1111122 
DISL,ioos:station:DISL:BSCA:1,2011-08-04T13:30:00Z,30.3288,-87.8293,1.92,1.43,1111122 
DISL,ioos:station:DISL:BSCA:1,2011-08-04T14:00:00Z,30.3288,-87.8293,1.905,1.52,1111122 
DISL,ioos:station:DISL:BSCA:1,2011-08-04T14:30:00Z,30.3288,-87.8293,1.876,1.72,1111122 
DISL,ioos:station:DISL:BSCA:1,2011-08-04T15:00:00Z,30.3288,-87.8293,1.857,2.06,1111122 
DISL,ioos:station:DISL:BSCA:1,2011-08-04T15:30:00Z,30.3288,-87.8293,1.845,2.05,1111122 
DISL,ioos:station:DISL:BSCA:1,2011-08-04T16:00:00Z,30.3288,-87.8293,1.834,2.12,1111122 
DISL,ioos:station:DISL:BSCA:1,2011-08-04T16:30:00Z,30.3288,-87.8293,1.84,2.75,1111122 
DISL,ioos:station:DISL:BSCA:1,2011-08-04T17:00:00Z,30.3288,-87.8293,1.834,1.97,1111122 
DISL,ioos:station:DISL:BSCA:1,2011-08-04T17:30:00Z,30.3288,-87.8293,1.834,1.72,1111122 
DISL,ioos:station:DISL:BSCA:1,2011-08-04T18:00:00Z,30.3288,-87.8293,1.824,2.54,1111122 
DISL,ioos:station:DISL:BSCA:1,2011-08-04T18:30:00Z,30.3288,-87.8293,1.824,2.57,1111122 
DISL,ioos:station:DISL:BSCA:1,2011-08-04T19:00:00Z,30.3288,-87.8293,1.812,1.6,1111122 
DISL,ioos:station:DISL:BSCA:1,2011-08-04T19:30:00Z,30.3288,-87.8293,1.82,1.25,1111122 
DISL,ioos:station:DISL:BSCA:1,2011-08-04T20:00:00Z,30.3288,-87.8293,1.827,0.72,1111122 
DISL,ioos:station:DISL:BSCA:1,2011-08-04T20:30:00Z,30.3288,-87.8293,1.843,1.3,1111122 
DISL,ioos:station:DISL:BSCA:1,2011-08-04T21:00:00Z,30.3288,-87.8293,1.86,3.59,1111122 
DISL,ioos:station:DISL:BSCA:1,2011-08-04T21:30:00Z,30.3288,-87.8293,1.863,2.98,1111122 
DISL,ioos:station:DISL:BSCA:1,2011-08-04T22:00:00Z,30.3288,-87.8293,1.873,2.06,1111122 
DISL,ioos:station:DISL:BSCA:1,2011-08-04T22:30:00Z,30.3288,-87.8293,1.882,2.41,1111122 
DISL,ioos:station:DISL:BSCA:1,2011-08-04T23:00:00Z,30.3288,-87.8293,1.895,2.0,1111122 
DISL,ioos:station:DISL:BSCA:1,2011-08-04T23:30:00Z,30.3288,-87.8293,1.904,1.8,1111122 
DISL,ioos:station:DISL:BSCA:1,2011-08-05T00:00:00Z,30.3288,-87.8293,1.907,3.39,1111122 
DISL,ioos:station:DISL:BSCA:1,2011-08-05T00:30:00Z,30.3288,-87.8293,1.948,3.93,1111122 
DISL,ioos:station:DISL:BSCA:1,2011-08-05T01:00:00Z,30.3288,-87.8293,1.929,4.31,1111122 
DISL,ioos:station:DISL:BSCA:1,2011-08-05T01:30:00Z,30.3288,-87.8293,1.966,2.39,1111122 
DISL,ioos:station:DISL:BSCA:1,2011-08-05T02:00:00Z,30.3288,-87.8293,1.94,2.92,1111122 
DISL,ioos:station:DISL:BSCA:1,2011-08-05T02:30:00Z,30.3288,-87.8293,1.98,1.86,1111122 
DISL,ioos:station:DISL:BSCA:1,2011-08-05T03:00:00Z,30.3288,-87.8293,1.951,1.64,1111122 
DISL,ioos:station:DISL:BSCA:1,2011-08-05T03:30:00Z,30.3288,-87.8293,1.982,0.91,1111122 
DISL,ioos:station:DISL:BSCA:1,2011-08-05T04:00:00Z,30.3288,-87.8293,1.991,0.9,1111122 
DISL,ioos:station:DISL:BSCA:1,2011-08-05T04:30:00Z,30.3288,-87.8293,2.004,2.63,1111122 
DISL,ioos:station:DISL:BSCA:1,2011-08-05T05:00:00Z,30.3288,-87.8293,1.92,2.54,1111122 
DISL,ioos:station:DISL:BSCA:1,2011-08-05T05:30:00Z,30.3288,-87.8293,2.195,3.0,1111122 
DISL,ioos:station:DISL:BSCA:1,2011-08-05T06:00:00Z,30.3288,-87.8293,2.13,2.86,1111122 
DISL,ioos:station:DISL:BSCA:1,2011-08-05T06:30:00Z,30.3288,-87.8293,2.02,2.23,1111122 
DISL,ioos:station:DISL:BSCA:1,2011-08-05T07:00:00Z,30.3288,-87.8293,1.929,3.02,1111122 
DISL,ioos:station:DISL:BSCA:1,2011-08-05T07:30:00Z,30.3288,-87.8293,1.781,2.96,1111122 
DISL,ioos:station:DISL:BSCA:1,2011-08-05T08:00:00Z,30.3288,-87.8293,1.724,1.64,1111122 
DISL,ioos:station:DISL:BSCA:1,2011-08-05T08:30:00Z,30.3288,-87.8293,1.717,1.96,1111122 
DISL,ioos:station:DISL:BSCA:1,2011-08-05T09:00:00Z,30.3288,-87.8293,1.761,1.8,1111122 
DISL,ioos:station:DISL:BSCA:1,2011-08-05T09:30:00Z,30.3288,-87.8293,1.888,2.23,1111122 
DISL,ioos:station:DISL:BSCA:1,2011-08-05T10:00:00Z,30.3288,-87.8293,2.036,1.86,1111122 
DISL,ioos:station:DISL:BSCA:1,2011-08-05T10:30:00Z,30.3288,-87.8293,2.156,0.51,1111122 
DISL,ioos:station:DISL:BSCA:1,2011-08-05T11:00:00Z,30.3288,-87.8293,2.184,1.35,1111122 
DISL,ioos:station:DISL:BSCA:1,2011-08-05T11:30:00Z,30.3288,-87.8293,2.167,2.58,1111122 
DISL,ioos:station:DISL:BSCA:1,2011-08-05T12:00:00Z,30.3288,-87.8293,2.127,2.7,1111122 
DISL,ioos:station:DISL:BSCA:1,2011-08-05T12:30:00Z,30.3288,-87.8293,2.059,1.58,1111122 
DISL,ioos:station:DISL:BSCA:1,2011-08-05T13:00:00Z,30.3288,-87.8293,1.985,1.26,1111122 
DISL,ioos:station:DISL:BSCA:1,2011-08-05T13:30:00Z,30.3288,-87.8293,1.944,0.9,1111122 
DISL,ioos:station:DISL:BSCA:1,2011-08-05T14:00:00Z,30.3288,-87.8293,1.907,0.5,1111122 
DISL,ioos:station:DISL:BSCA:1,2011-08-05T14:30:00Z,30.3288,-87.8293,1.903,0.53,1111122 
DISL,ioos:station:DISL:BSCA:1,2011-08-05T15:00:00Z,30.3288,-87.8293,1.901,0.99,1111122 
DISL,ioos:station:DISL:BSCA:1,2011-08-05T15:30:00Z,30.3288,-87.8293,1.903,1.85,1111122 
DISL,ioos:station:DISL:BSCA:1,2011-08-05T16:00:00Z,30.3288,-87.8293,1.88,2.25,1111122 
DISL,ioos:station:DISL:BSCA:1,2011-08-05T16:30:00Z,30.3288,-87.8293,1.83,1.24,1111122 
DISL,ioos:station:DISL:BSCA:1,2011-08-05T17:00:00Z,30.3288,-87.8293,1.79,1.64,1111122 
DISL,ioos:station:DISL:BSCA:1,2011-08-05T17:30:00Z,30.3288,-87.8293,1.747,1.91,1111122 
DISL,ioos:station:DISL:BSCA:1,2011-08-05T18:00:00Z,30.3288,-87.8293,1.729,0.53,1111122 
DISL,ioos:station:DISL:BSCA:1,2011-08-05T18:30:00Z,30.3288,-87.8293,1.714,0.16,1111122 
DISL,ioos:station:DISL:BSCA:1,2011-08-05T19:00:00Z,30.3288,-87.8293,1.695,0.3,1111122 
DISL,ioos:station:DISL:BSCA:1,2011-08-05T19:30:00Z,30.3288,-87.8293,1.696,0.2,1111122 
DISL,ioos:station:DISL:BSCA:1,2011-08-05T20:00:00Z,30.3288,-87.8293,1.693,0.54,1111122 
DISL,ioos:station:DISL:BSCA:1,2011-08-05T20:30:00Z,30.3288,-87.8293,1.707,0.49,1111122 
DISL,ioos:station:DISL:BSCA:1,2011-08-05T21:00:00Z,30.3288,-87.8293,1.712,0.45,1111122 
DISL,ioos:station:DISL:BSCA:1,2011-08-05T21:30:00Z,30.3288,-87.8293,1.735,0.42,1111122 
DISL,ioos:station:DISL:BSCA:1,2011-08-05T22:00:00Z,30.3288,-87.8293,1.749,0.35,1111122 
DISL,ioos:station:DISL:BSCA:1,2011-08-05T22:30:00Z,30.3288,-87.8293,1.782,0.57,1111122 
DISL,ioos:station:DISL:BSCA:1,2011-08-05T23:00:00Z,30.3288,-87.8293,1.781,0.48,1111122 
DISL,ioos:station:DISL:BSCA:1,2011-08-05T23:30:00Z,30.3288,-87.8293,1.812,1.09,1111122 
DISL,ioos:station:DISL:BSCA:1,2011-08-06T00:00:00Z,30.3288,-87.8293,1.808,0.34,1111122 
DISL,ioos:station:DISL:BSCA:1,2011-08-06T00:30:00Z,30.3288,-87.8293,1.844,0.62,1111122 
DISL,ioos:station:DISL:BSCA:1,2011-08-06T01:00:00Z,30.3288,-87.8293,1.868,0.48,1111122 
DISL,ioos:station:DISL:BSCA:1,2011-08-06T01:30:00Z,30.3288,-87.8293,1.9,0.43,1111122 
DISL,ioos:station:DISL:BSCA:1,2011-08-06T02:00:00Z,30.3288,-87.8293,1.921,0.55,1111122 
DISL,ioos:station:DISL:BSCA:1,2011-08-06T02:30:00Z,30.3288,-87.8293,1.927,0.26,1111122 
DISL,ioos:station:DISL:BSCA:1,2011-08-06T03:00:00Z,30.3288,-87.8293,1.95,0.21,1111122 
DISL,ioos:station:DISL:BSCA:1,2011-08-06T03:30:00Z,30.3288,-87.8293,1.967,0.16,1111122 
DISL,ioos:station:DISL:BSCA:1,2011-08-06T04:00:00Z,30.3288,-87.8293,1.985,0.13,1111122 
DISL,ioos:station:DISL:BSCA:1,2011-08-06T04:30:00Z,30.3288,-87.8293,2.014,0.21,1111122 
DISL,ioos:station:DISL:BSCA:1,2011-08-06T05:00:00Z,30.3288,-87.8293,2.033,0.23,1111122 
DISL,ioos:station:DISL:BSCA:1,2011-08-06T05:30:00Z,30.3288,-87.8293,2.064,1.33,1111122 
DISL,ioos:station:DISL:BSCA:1,2011-08-06T06:00:00Z,30.3288,-87.8293,2.073,0.4,1111122 
DISL,ioos:station:DISL:BSCA:1,2011-08-06T06:30:00Z,30.3288,-87.8293,2.103,0.8,1111122 
DISL,ioos:station:DISL:BSCA:1,2011-08-06T07:00:00Z,30.3288,-87.8293,2.141,0.56,1111122 
DISL,ioos:station:DISL:BSCA:1,2011-08-06T07:30:00Z,30.3288,-87.8293,2.158,0.36,1111122 
DISL,ioos:station:DISL:BSCA:1,2011-08-06T08:00:00Z,30.3288,-87.8293,2.188,1.09,1111122 
DISL,ioos:station:DISL:BSCA:1,2011-08-06T08:30:00Z,30.3288,-87.8293,2.206,1.65,1111122 
DISL,ioos:station:DISL:BSCA:1,2011-08-06T09:00:00Z,30.3288,-87.8293,2.216,2.3,1111122 
DISL,ioos:station:DISL:BSCA:1,2011-08-06T09:30:00Z,30.3288,-87.8293,2.226,1.85,1111122 
DISL,ioos:station:DISL:BSCA:1,2011-08-06T10:00:00Z,30.3288,-87.8293,2.193,2.21,1111122 
DISL,ioos:station:DISL:BSCA:1,2011-08-06T10:30:00Z,30.3288,-87.8293,2.215,2.24,1111122 
DISL,ioos:station:DISL:BSCA:1,2011-08-06T11:00:00Z,30.3288,-87.8293,2.192,1.46,1111122 
DISL,ioos:station:DISL:BSCA:1,2011-08-06T11:30:00Z,30.3288,-87.8293,2.233,1.17,1111122 
DISL,ioos:station:DISL:BSCA:1,2011-08-06T12:00:00Z,30.3288,-87.8293,2.191,0.95,1111122 
DISL,ioos:station:DISL:BSCA:1,2011-08-06T12:30:00Z,30.3288,-87.8293,2.16,0.83,1111122 
DISL,ioos:station:DISL:BSCA:1,2011-08-06T13:00:00Z,30.3288,-87.8293,2.118,0.51,1111122 
DISL,ioos:station:DISL:BSCA:1,2011-08-06T13:30:00Z,30.3288,-87.8293,2.081,0.68,1111122 
DISL,ioos:station:DISL:BSCA:1,2011-08-06T14:00:00Z,30.3288,-87.8293,2.049,0.42,1111122 
DISL,ioos:station:DISL:BSCA:1,2011-08-06T14:30:00Z,30.3288,-87.8293,2.015,0.62,1111122 
DISL,ioos:station:DISL:BSCA:1,2011-08-06T15:00:00Z,30.3288,-87.8293,1.978,0.51,1111122 
DISL,ioos:station:DISL:BSCA:1,2011-08-06T15:30:00Z,30.3288,-87.8293,1.933,0.89,1111122 